Temp
81 80 80 80 80 80 79 79 79 79 80 80 80 80 80 76 72 72 74 74 77 81 80 79 80 79 80 80 80 80 79 79 80
79 79 79 79 78 79 79 79 79 79 79 79 80 79 77 71 70 71 72 73 78 80 80 79 79 79 80 80 80 79 79 79 79
78 78 78 78 77 76 77 76 77 76 77 78 78 78 76 72 70 70 70 75 78 81 79 79 78 78 79 79 79 79 79 78 78
76 76 76 76 76 75 75 75 75 75 75 75 76 76 74 69 69 72 70 75 78 79 80 79 78 78 79 79 79 79 79 78 79
74 73 74 74 74 74 74 74 73 73 73 74 73 71 72 69 68 68 69 75 77 78 78 79 79 77 79 79 79 79 79 78 79
61 71 73 73 72 72 72 71 71 68 68 70 70 67 63 67 68 69 73 75 76 78 78 78 78 78 79 79 79 79 78 78 78
62 66 69 70 69 69 69 68 66 62 57 58 61 57 58 61 63 69 73 75 76 77 77 78 78 78 79 79 79 78 78 78 78
53 52 52 52 61 55 57 55 56 55 55 55 54 55 55 55 59 65 71 72 74 75 76 77 77 78 77 79 78 79 78 78 77
51 51 51 51 51 51 51 51 52 53 53 50 51 50 53 55 57 60 68 70 71 72 73 74 75 76 77 78 78 78 78 78 78
51 50 50 50 51 51 50 50 50 50 52 52 50 50 49 50 53 54 65 67 68 70 71 72 72 73 74 76 78 78 78 78 78
51 50 50 50 50 50 50 49 49 49 49 50 51 49 49 50 50 53 53 64 65 67 68 69 71 71 72 74 73 77 77 77 77
50 50 49 49 50 51 51 50 49 49 51 47 49 50 48 50 50 52 53 53 60 63 65 67 68 69 71 72 73 71 76 76 77
50 50 49 50 50 50 49 48 48 48 47 46 47 47 48 48 49 50 51 51 53 56 62 64 65 67 69 71 72 72 70 76 76
50 49 49 50 49 48 49 48 47 47 47 50 48 47 46 46 52 48 50 51 51 51 57 60 61 64 66 68 69 69 70 71 76
50 49 49 49 49 48 47 47 47 46 45 51 49 45 44 46 46 48 52 50 51 49 51 50 53 61 64 65 66 67 68 68 69
50 48 49 48 48 47 47 46 45 45 43 43 44 42 43 43 45 46 47 48 50 48 50 50 51 53 59 60 63 66 67 66 68
50 49 48 48 47 46 46 45 43 43 43 42 38 37 40 42 46 48 47 46 47 49 52 49 49 50 51 54 59 60 64 65 66
50 49 47 47 46 46 45 44 44 42 42 42 41 36 34 39 41 44 44 45 45 46 47 49 50 50 49 53 53 57 61 64 64
50 49 48 47 45 45 45 47 43 42 41 41 45 40 39 36 35 41 44 45 46 46 46 48 49 49 49 52 55 57 59 62 62
49 49 48 46 45 45 45 44 43 41 41 40 40 38 38 37 36 38 41 48 46 46 46 47 48 49 49 48 51 57 59 61 61
MSLP
1017.81 1017.83 1017.77 1017.74 1017.65 1017.54 1017.40 1017.23 1017.08 1016.98 1016.88 1016.91 1016.92 1016.92 1017.04 1017.29 1017.53 1017.57 1017.58 1017.62 1017.51 1017.38 1017.45 1017.70 1017.86 1018.01 1018.08 1018.26 1018.42 1018.54 1018.69 1018.79 1018.87
1018.30 1018.26 1018.18 1018.16 1018.13 1017.93 1017.79 1017.64 1017.52 1017.32 1017.19 1017.08 1017.06 1017.20 1017.42 1017.70 1017.84 1017.87 1017.84 1017.87 1017.70 1017.67 1017.57 1017.92 1017.95 1018.07 1018.19 1018.27 1018.44 1018.58 1018.78 1018.98 1019.06
1018.72 1018.59 1018.62 1018.58 1018.60 1018.55 1018.34 1018.32 1018.14 1017.87 1017.61 1017.43 1017.23 1017.34 1017.60 1017.88 1018.06 1018.10 1018.10 1018.05 1017.81 1017.82 1018.01 1018.03 1018.09 1018.10 1018.22 1018.48 1018.57 1018.69 1018.82 1019.07 1019.27
1019.16 1019.11 1019.02 1019.03 1019.03 1018.99 1018.91 1018.83 1018.70 1018.49 1018.24 1018.04 1017.87 1017.69 1017.86 1018.13 1018.31 1018.27 1018.26 1018.21 1018.01 1017.82 1017.91 1018.04 1018.15 1018.08 1018.21 1018.45 1018.62 1018.71 1018.82 1018.99 1019.14
1019.58 1019.55 1019.47 1019.43 1019.42 1019.38 1019.33 1019.27 1019.20 1019.10 1018.84 1018.65 1018.46 1018.38 1018.35 1018.47 1018.54 1018.63 1018.55 1018.29 1018.13 1017.99 1017.96 1017.91 1018.01 1018.23 1018.19 1018.42 1018.60 1018.71 1018.75 1018.97 1019.12
1020.19 1019.91 1019.84 1019.85 1019.84 1019.81 1019.76 1019.75 1019.76 1019.80 1019.67 1019.42 1019.28 1019.10 1019.20 1018.81 1018.86 1018.94 1018.74 1018.41 1018.21 1018.03 1017.92 1017.86 1017.85 1018.00 1018.16 1018.31 1018.41 1018.59 1018.79 1019.01 1019.12
1020.56 1020.47 1020.38 1020.33 1020.36 1020.34 1020.31 1020.33 1020.37 1020.40 1020.48 1020.38 1020.19 1020.22 1020.07 1019.85 1019.72 1019.56 1019.12 1018.63 1018.19 1017.92 1017.76 1017.71 1017.71 1017.84 1017.97 1018.11 1018.27 1018.40 1018.66 1018.85 1019.08
1021.02 1021.09 1021.17 1021.07 1020.99 1021.10 1021.05 1021.05 1021.03 1021.04 1021.02 1020.96 1020.93 1020.84 1020.74 1020.65 1020.39 1020.09 1019.49 1019.05 1018.62 1018.22 1017.87 1017.72 1017.70 1017.69 1017.76 1017.80 1018.01 1018.20 1018.44 1018.67 1018.94
1021.25 1021.37 1021.41 1021.42 1021.49 1021.51 1021.53 1021.58 1021.51 1021.44 1021.41 1021.45 1021.36 1021.32 1021.23 1021.11 1020.84 1020.54 1019.83 1019.44 1019.11 1018.89 1018.55 1018.21 1017.99 1017.81 1017.54 1017.55 1017.60 1017.90 1018.17 1018.37 1018.61
1021.37 1021.54 1021.61 1021.66 1021.62 1021.68 1021.78 1021.79 1021.80 1021.82 1021.76 1021.61 1021.55 1021.59 1021.60 1021.47 1021.26 1021.02 1020.31 1019.96 1019.70 1019.31 1019.03 1018.66 1018.45 1018.19 1017.95 1017.54 1017.37 1017.60 1017.84 1018.08 1018.21
1021.49 1021.60 1021.76 1021.81 1021.81 1021.90 1021.94 1021.98 1022.01 1022.09 1022.08 1021.99 1021.81 1021.78 1021.78 1021.71 1021.49 1021.24 1021.04 1020.52 1020.25 1019.86 1019.52 1019.21 1018.75 1018.43 1018.20 1017.83 1017.77 1017.22 1017.42 1017.66 1017.83
1021.48 1021.67 1021.83 1021.91 1021.88 1021.90 1021.92 1022.00 1022.02 1022.13 1022.07 1022.12 1021.91 1021.81 1021.87 1021.86 1021.67 1021.38 1021.03 1020.82 1020.56 1020.23 1019.88 1019.46 1019.20 1018.83 1018.31 1017.86 1017.59 1017.58 1016.96 1017.15 1017.46
1021.45 1021.66 1021.76 1021.76 1021.89 1021.97 1022.03 1022.12 1022.18 1022.28 1022.33 1022.27 1022.04 1021.88 1021.81 1021.91 1021.74 1021.42 1021.16 1021.01 1020.78 1020.51 1020.03 1019.74 1019.36 1018.90 1018.52 1018.06 1017.67 1017.41 1017.37 1016.79 1016.98
1021.25 1021.50 1021.64 1021.61 1021.87 1022.09 1022.00 1022.17 1022.23 1022.39 1022.42 1022.30 1022.09 1021.91 1021.93 1021.84 1021.50 1021.35 1021.08 1020.95 1020.78 1020.64 1020.32 1019.99 1019.67 1019.11 1018.67 1018.24 1017.96 1017.72 1017.31 1016.86 1016.49
1021.12 1021.26 1021.44 1021.47 1021.78 1022.15 1022.20 1022.28 1022.38 1022.50 1022.67 1022.45 1022.19 1021.78 1021.84 1021.69 1021.44 1021.16 1020.95 1020.81 1020.59 1020.55 1020.30 1020.06 1019.81 1019.41 1018.87 1018.47 1018.11 1017.70 1017.49 1017.29 1016.77
1020.85 1021.07 1021.28 1021.42 1021.75 1022.10 1022.27 1022.42 1022.63 1022.66 1022.69 1022.80 1022.63 1022.25 1021.91 1021.79 1021.59 1021.35 1021.16 1020.82 1020.52 1020.49 1020.20 1019.94 1019.72 1019.41 1019.10 1018.75 1018.18 1017.64 1017.35 1017.25 1016.83
1020.53 1020.78 1021.09 1021.35 1021.73 1022.04 1022.26 1022.39 1022.77 1022.89 1022.84 1023.24 1023.55 1023.25 1022.65 1022.32 1021.72 1021.33 1021.24 1021.13 1020.74 1020.32 1019.66 1019.41 1019.21 1019.11 1018.99 1018.70 1018.16 1017.65 1017.11 1016.89 1016.59
1020.10 1020.40 1020.77 1021.14 1021.47 1021.85 1022.09 1022.26 1022.52 1022.89 1022.94 1023.09 1023.44 1023.59 1023.61 1022.67 1021.72 1021.28 1021.05 1021.03 1020.84 1020.47 1019.94 1019.38 1018.94 1018.70 1018.56 1018.30 1017.89 1017.41 1016.86 1016.31 1016.26
1019.74 1020.02 1020.43 1020.81 1021.22 1021.59 1021.77 1021.96 1022.23 1022.61 1023.07 1023.09 1022.94 1023.06 1023.27 1023.15 1022.28 1021.44 1020.81 1020.51 1020.25 1019.88 1019.37 1018.86 1018.57 1018.42 1018.15 1017.84 1017.38 1016.95 1016.44 1015.88 1015.64
1019.43 1019.69 1020.09 1020.52 1020.94 1021.24 1021.50 1021.66 1021.94 1022.23 1022.62 1022.85 1022.82 1022.90 1022.83 1022.75 1022.73 1020.96 1020.28 1019.84 1019.31 1019.16 1018.86 1018.51 1018.16 1017.90 1017.53 1017.24 1017.08 1016.40 1015.87 1015.33 1014.82
Wind_Speed
11 12 12 14 14 13 14 13 13 10 8 6 6 5 8 8 5 4 3 2 5 6 9 6 6 6 5 6 5 4 4 6 7
13 13 14 15 16 13 14 15 16 13 12 9 2 7 8 5 5 5 4 4 7 7 7 5 7 7 6 5 3 4 5 4 5
12 14 13 15 14 16 17 17 16 16 16 16 13 8 8 5 4 4 4 8 11 10 8 6 7 6 6 4 4 4 5 4 3
13 14 13 14 14 15 15 16 17 18 18 17 18 6 8 5 3 5 3 11 13 10 7 6 6 5 5 5 5 6 6 6 5
13 13 13 14 14 14 15 16 17 18 19 20 20 19 14 5 5 4 5 15 15 13 9 7 7 8 7 7 6 8 7 7 6
9 12 14 14 15 15 16 17 17 18 18 20 20 18 7 7 5 5 15 15 14 12 10 8 5 8 9 9 7 8 8 8 7
7 11 15 17 16 17 17 18 18 13 6 6 13 6 7 6 6 6 18 19 16 13 10 9 5 9 12 11 10 10 10 10 9
4 4 4 4 12 5 8 7 6 7 6 6 6 6 6 4 5 10 19 20 20 22 16 12 11 9 14 13 12 12 12 11 11
4 4 4 4 3 5 5 4 5 7 6 6 6 6 6 5 4 8 19 19 20 21 22 23 21 18 13 16 14 14 15 14 14
4 4 4 4 4 4 5 5 5 6 6 6 6 6 6 6 4 3 17 19 20 20 20 21 21 22 24 15 15 14 15 16 16
4 4 4 4 3 3 4 4 4 4 4 5 5 6 6 6 6 4 5 16 17 19 19 20 20 21 21 21 21 17 17 17 17
5 4 3 3 2 4 4 4 4 5 4 5 4 4 4 5 5 4 3 5 13 17 19 20 20 20 21 22 22 25 19 20 19
4 4 3 2 3 3 3 3 3 4 4 3 4 4 4 4 3 3 3 4 5 10 19 19 20 21 21 21 22 22 27 22 21
5 4 3 3 3 3 2 3 3 3 4 3 4 4 4 2 2 4 3 3 3 3 11 18 18 19 21 21 22 24 23 20 22
4 3 3 3 3 2 2 3 2 1 2 4 5 5 3 2 2 5 5 5 6 4 5 4 5 18 20 20 23 24 24 26 25
5 3 3 3 3 2 1 1 3 2 3 2 4 4 4 5 5 4 4 5 4 4 4 3 3 6 18 19 22 25 26 25 26
5 5 4 4 3 2 2 2 1 1 2 2 1 4 5 4 6 6 4 6 5 8 8 7 5 4 4 11 22 24 23 26 23
6 6 5 5 4 3 3 3 4 1 1 1 2 2 3 4 3 4 4 5 3 5 6 6 6 6 6 10 13 21 22 23 26
7 6 6 6 4 4 3 4 3 3 2 2 3 3 3 2 5 3 4 6 6 6 5 5 5 6 7 13 18 21 24 24 24
6 7 7 6 4 4 5 4 5 3 3 4 2 2 2 4 5 10 5 7 5 5 5 5 5 6 7 8 11 22 23 25 22
Wind_Direction
60 51 50 42 46 43 41 34 33 38 33 14 28 65 106 76 37 4 293 288 288 202 191 175 163 158 170 166 160 133 148 148 139
60 59 53 48 45 41 48 45 35 32 32 17 3 87 80 64 40 22 2 322 284 265 246 207 196 197 191 192 187 175 178 167 139
57 60 54 54 51 45 48 45 38 36 31 28 12 102 84 64 47 12 12 345 322 273 286 260 226 201 191 203 199 199 190 171 136
59 65 61 56 53 50 48 47 43 40 37 32 28 41 86 58 26 355 1 342 344 341 280 289 256 221 199 216 220 234 220 204 232
64 58 59 59 55 52 50 47 46 43 41 39 37 38 30 34 22 8 345 343 339 328 324 300 265 237 207 213 240 256 224 215 203
41 65 65 60 59 54 52 48 45 42 38 38 38 36 21 28 19 7 343 336 333 330 311 305 281 232 214 221 229 240 202 214 201
65 65 63 65 60 57 53 49 45 40 31 27 32 28 21 21 16 25 16 15 356 324 314 293 294 238 231 223 226 216 223 214 210
65 63 51 44 56 47 47 41 38 36 36 32 36 28 29 15 17 9 16 18 15 10 1 334 314 275 243 229 223 222 213 216 211
76 69 58 59 48 58 49 44 38 37 39 43 38 33 32 21 12 11 20 23 24 18 11 8 3 355 280 238 222 224 218 220 217
99 86 75 69 58 57 53 56 51 42 30 31 40 34 23 21 15 12 25 22 18 16 10 7 360 354 354 308 233 226 218 217 218
105 95 80 68 66 69 71 68 54 46 40 37 33 32 23 21 17 12 10 22 19 14 8 1 357 351 345 344 348 239 218 216 221
124 110 92 81 71 72 61 54 56 45 20 27 21 38 22 19 18 8 359 5 15 11 6 360 353 345 340 338 339 349 229 217 220
129 121 111 103 79 75 73 51 48 42 31 353 351 0 10 18 7 351 357 355 3 0 2 360 351 348 341 334 336 333 348 229 220
140 138 142 118 93 63 53 58 71 34 1 335 340 341 348 349 339 337 326 321 340 342 350 356 353 348 342 338 334 333 326 318 229
146 142 138 118 102 71 63 57 14 42 7 338 335 317 309 288 329 2 336 330 333 344 333 330 330 343 336 334 332 326 322 324 331
161 153 146 124 123 135 109 84 53 348 15 22 332 325 317 314 305 322 306 306 293 265 261 268 304 327 330 330 323 324 318 315 301
172 166 166 156 139 140 117 109 94 9 29 69 72 347 336 342 281 310 283 286 314 317 314 319 294 281 284 310 318 316 310 310 301
181 174 163 162 148 162 159 147 141 144 335 171 153 347 268 307 332 260 260 259 260 263 268 276 281 294 282 297 305 306 299 299 306
181 174 166 166 158 164 179 162 155 136 220 310 203 217 179 265 316 298 260 245 253 269 276 275 271 274 278 282 293 297 293 286 298
181 169 166 165 169 180 183 172 177 177 181 189 235 250 247 225 230 294 285 293 242 244 247 252 257 266 268 268 272 292 287 280 287